Погода в Орлинге

Погода в Орлинге : погода сейчас, прогноз погоды и архив. Всё, что Вы хотите узнать о погоде в Орлинге!

Хотите узнать прогноз погоды в Орлинге? Тогда Вам сюда: Погода в Орлинге

Поиск расширенной информации на нашем сайте:

Другие новости

Новости СМИ2

Главная страница сайта

Новости сайта

03.07.2017

Напоминаем, что на нашем специализированном сайте Метеоцентр.Азия вы можете получить высокодетализированные автоматические прогнозы погоды по пунктам России, СНГ и мира в авиационном формате (включающие направление и скорость ветра, видимость, явления погоды, количество и форму облачности, нижнюю и верхнюю границу облачности).


Погода в Орлинге - сегодня

Время (UTC), дата Ветер
(°,м/с) 
Видим.   Явления Облачность Т
(°С)
Тd
(°С)
f(%) Тe
(°С)
Pmin
(гПа)
dP
(гПа)
Po
(мм)
O2
(г/м3)
Тmin Tmax R s Состояние
почвы
06 14.10.18 290 (З) 20000 м    ясно 
+8.9 -2.8 44 +9  1021.1  -2  735  287           
12 14.10.18 тихо ()   н/о    ясно 
-1.5 -5.6 74 -2  1023.6  0.9  736  299    +11.5       
18 14.10.18 тихо ()   н/о    ясно 
-6.1 -6.9 94 -6  1026.2  1.8  737  305           
00 15.10.18 тихо ()   1000 м  дымка  10/0 верхняя 
[Ci fib]
-8.5 -8.8 98 -9  1027.2  0.6  738  308  -8.6         
06 15.10.18 140 (ЮВ) 20000 м    3/0 верхняя 
[Ci fib]
+9.5 -3.5 40 +11  1022.1  -2.2  736  287           
12 15.10.18 тихо ()   н/о    3/0 верхняя 
[Ci fib]
-0.3 -3.7 78 -0  1024.4  0.8  737  298    +11.9       
18 15.10.18 тихо ()   н/о    ясно 
-3.8 -4.3 96 -4  1028.9  3.8  739  303           
00 16.10.18 тихо ()   0200 м  туман  ?/?  
-7 -7.2 98 -7  1031.4  1.8  741  307  -7.1         
06 16.10.18 290 (З) 20000 м  {туман}  10/0 верхняя 
[Cs]
+6.6 -1.7 55 +8  1026.8  -2.3  739  291           
12 16.10.18 320 (СЗ) н/о    10/0 верхняя 
[Ci fib]
-1.6 -2.7 92 -1  1025.4  -2.5  737  299    +8.6       
18 16.10.18 тихо ()   н/о  туман  10/0 верхняя 
[Ci fib]
-4.2 -4.4 99 -4  1023.4  -2.4  735  301           
00 17.10.18 тихо ()   0500 м  туман  ?/?  
-3.6 -3.4 100 -4  1022.2  -1  735  300  -4.5         
06 17.10.18 880 () 20000 м  {туман}  1/0 средняя 
[Ac As]
+3.8 -1.4 69 +5  1020.6  -0.5  734  292           
12 17.10.18 320 (СЗ) н/о    10/0 средняя, верхняя 
[Ac trans|Cs]
+0.1 -3.2 78 +1  1023.6  2.4  736  297    +5.8       
18 17.10.18 тихо ()   н/о    10/0 верхняя 
[Cs]
-2.5 -3.1 96 -3  1025.2  1.2  737  300           
00 18.10.18 тихо ()   0200 м  туман  ?/?  
-2.1 -2.1 100 -2  1026  0.7  737  300  -3         
06 18.10.18 290 (З) 20000 м  {туман}  10/0 верхняя 
[Cs]
+8.1 +0.9 60 +9  1020.7  -3.5  735  287           
12 18.10.18 290 (З) н/о    10/0 верхняя 
[Cs]
-0.2 -2.3 86 1020  -1.9  733  296    +10.1       
18 18.10.18 тихо ()   н/о  местами туман поземный  10/0 верхняя 
[Cs]
-4.7 -5 98 -5  1021.9  1.1  734  302           
00 19.10.18 тихо ()   0200 м  туман  ?/?  
-5.4 -5.8 97 -5  1024.2  2.1  736  303  -5.6         
06 19.10.18 320 (СЗ) 20000 м  {туман}  10/1 1000 м верхняя 
[Cu med, cong|Cs]
+5.9 -3.8 50 +7  1020.4  -2  734  290           
12 19.10.18 320 (СЗ) н/о    10/0 верхняя 
[Cs]
+0 -3 80 +1  1020.2  -0.9  734  296    +6.8       
18 19.10.18 320 (СЗ) н/о    6/0 верхняя 
[Ci fib]
-4.3 -5.5 91 -4  1020.3  -0.7  733  301           
00 20.10.18 тихо ()   10 км    10/4 300 м верхняя 
[St|Cs]
-7.1 -8.4 90 -7  1019.9  -0.8  733  304  -7.2         
06 20.10.18 200 (Ю) 20000 м    10/0 средняя, верхняя 
[Ac As|Cs]
+3.7 -4 57 +5  1015.9  -2.1  731  291           
Время (UTC), дата Ветер
(°,м/с) 
Видим.   Явления Облачность Т
(°С)
Тd
(°С)
f(%) Тe
(°С)
Pmin
(гПа)
dP
(гПа)
Po
(мм)
O2
(г/м3)
Тmin Tmax R s Состояние
почвы

Для получения пояснительной информации подведите курсор к названию столбца.

ПОГОДА в Орлинге - архив

Всё, что Вы хотите узнать о погоде в Орлинге - удобно и подробно!

Выберите нужную дату (начиная с 1 января 2015* года) и нажмите кнопку "Найти".
Будут отображены архивные сводки погоды по пункту Орлинга, начиная с указанной даты.


Отображать данные в формате CSV (для использования в таблицах Excel)


Внимание! Наш архив погоды предназначен исключительно для личного некоммерческого использования в познавательных целях. Если Вам необходимы официальные справки о состоянии погоды (для производственных, юридических, коммерческих и т.п. целей), обращайтесь в органы Росгидромета.

*Примечание: данная дата относится к архиву по метеостанциям СССР (Россия, СНГ, Балтия).
Архив по метеостанциям Зарубежной Европы и Азии (кроме Китая) хранится 10 дней, по другим регионам земного шара (Китай, Африка, Америка, Австралия, Океания) - 1 день.

Орлинга - район местоположения метеостанции


Название, широта, долгота, высота метеостанции:
Орлинга 56.1°ш. 105.8°д. 338 м над ур. моря [Российская Федерация]

Дополнительная информация

В oтличие oт бoльшинства пoгoдных сайтoв мы публикуем пoдрoбную метеoинфoрмацию в детальнoм прoфессиoнальнoм фoрмате.

Характеристики температуры и влажнoсти вoздуха измеряются на высoте 2 м в тени вдали oт зданий и деревьев.
Скoрoсть ветра измеряется на высoте 10 м (на урoвне рoста челoвека скoрoсть ветра ниже в 1.5-2 раза). Если метеoстанция нахoдится в гoрoде или в лесу, тo скoрoсть ветра занижена на 2-4 м/с пo сравнению с oткрытым местoм. Скoрoсть ветра над акватoриями крупных рек и oзёр, а также на вершинах хoлмoв на 2-5 м/с выше, чем в oбычных услoвиях.
Атмoсфернoе давление в разных тoчках местнoсти мoжет значительнo oтличаться oт давления на метеoстанции, в зависимoсти oт услoвий рельефа (при пoдъёме на 10 м давление пoнижается примернo на 1 мм рт.ст.).